This is the latest recevied weather packets stored in our database for station/object W8RSN-13. If no packets are shown the sender has not sent any weather packets the latest 10 day(s).
| Time | Temp. | Humidity | Pressure | Rain* | Wind** | Luminosity | Snow |
|---|---|---|---|---|---|---|---|
| 1788027258 | 33.33° C | 39% | 1015 hPa | - | - | - | - |
| 1788026957 | 33.33° C | 39% | 1015.1 hPa | - | - | - | - |
| 1788026656 | 33.33° C | 39% | 1015 hPa | - | - | - | - |
| 1788026376 | 33.33° C | 39% | 1015.1 hPa | - | - | - | - |
| 1788026075 | 33.33° C | 38% | 1015.2 hPa | - | - | - | - |
| 1788025774 | 33.33° C | 39% | 1015.1 hPa | - | - | - | - |
| 1788025473 | 32.78° C | 41% | 1015 hPa | - | - | - | - |
| 1788025172 | 32.78° C | 39% | 1015.3 hPa | - | - | - | - |
| 1788024871 | 32.78° C | 40% | 1015.4 hPa | - | - | - | - |
| 1788024570 | 32.22° C | 40% | 1015.3 hPa | - | - | - | - |
| 1788024269 | 32.22° C | 42% | 1015.4 hPa | - | - | - | - |
| 1788023968 | 32.22° C | 41% | 1015.4 hPa | - | - | - | - |
| 1788023668 | 31.67° C | 42% | 1015.5 hPa | - | - | - | - |
| 1788023367 | 32.78° C | 42% | 1015.7 hPa | - | - | - | - |
| 1788023066 | 32.22° C | 43% | 1015.5 hPa | - | - | - | - |
| 1788022765 | 31.67° C | 43% | 1015.5 hPa | - | - | - | - |
| 1788022464 | 31.67° C | 43% | 1015.5 hPa | - | - | - | - |
| 1788022164 | 31.67° C | 43% | 1015.5 hPa | - | - | - | - |
| 1788021863 | 31.11° C | 44% | 1015.3 hPa | - | - | - | - |
| 1788021561 | 30.56° C | 45% | 1015.2 hPa | - | - | - | - |
| 1788021260 | 30.56° C | 45% | 1015.4 hPa | - | - | - | - |
| 1788020960 | 30.56° C | 46% | 1015.5 hPa | - | - | - | - |
| 1788020659 | 30.56° C | 45% | 1015.2 hPa | - | - | - | - |
| 1788020358 | 30° C | 47% | 1015.3 hPa | - | - | - | - |
| 1788020057 | 30° C | 47% | 1015.1 hPa | - | - | - | - |
* Rain since midnight (hover to see other rain measurements)
** Current wind speed in m/s (hover to see current wind gust speed)